GEESAT-3 01 (61011 NORAD) Tracking and Keplerian Element Data

This shows tracking and keplerian element data for the satellite.

Feedback or suggestion? Click here.




ElementValue
Catalog61011
NameGEESAT-3 01
Epoch Orbit543
Epoch Day286.85502935
Epoch Year2024
RAAN64.9057
Inclination50.0015
Eccentricity0.0014199
Argument of Perigee23.33
Mean Anonmoly336.8284
Mean Motion14.92269713
Decay Rate0.00014665
L11 61011U 24159A 24286.85502935 .00014665 00000+0 14391-2 0 9990
L22 61011 50.0015 64.9057 0014199 23.3300 336.8284 14.92269713 5438



Live tracking and technical data element details for GEESAT-3 01 (NORAD 61011). GEESAT-3 01 can be tracked NOW for your location showing map with azimuth and elevation plus other details from your city location.







IsCatalogInMostPopularTable: catalog: 61011, numindb: 6
Update: records affected: 1



GetName: 61011 GEESAT-3 01

Hit Count: updated at: Tue, 03 Dec 2024 03:31:01 GMT